Location: Te Maire Creek
(41.1333°S, 175.9167°E)
Time: 23:42:40
(UTC+00:00)

Cosmos 158 Rocket - Pass Details

Date: 19 May 2024
Orbit: 695 x 790 km, 74.0° (Epoch: 18 June)

Event Time Altitude Azimuth Distance (km) Brightness Sun altitude
Rises 18:16:53 0° 347° (NNW) 3,209 7.3 -12.3°
Reaches altitude 10° 18:19:15 10° 349° (NNW) 2,277 6.5 -11.8°
Maximum altitude 18:24:24 75° 73° (ENE) 775 4.2 -10.9°
Drops below altitude 10° 18:29:28 10° 157° (SSE) 2,244 6.5 -10.0°
Sets 18:31:48 0° 158° (SSE) 3,159 7.2 -9.6°
